When you browse on this site, cookies collect data to enhance your experience and personalize the content and advertising you see.
Visit our Privacy Policy to learn more. By continuing to use the site, you agree to this use of cookies and data.
  • In Lithuania
  • List of Countries
  • For 7 days
  • Water Temperature
  • Satellite Maps
  • Weather Map
  • Weather Widgets
  • user-avatar
    Login

    Hourly Weather Molodogvardejsk

    Today, 21 April, Sunday

    Time Temperature Precipitation Wind Pressure Humidity
    00:00 +6°C° 0 mm 1 mps 749 mmHg 49%
    01:00 +6°C° 0 mm 1 mps 749 mmHg 49%
    02:00 +5°C° 0 mm 1 mps 749 mmHg 49%
    03:00 +5°C° 0 mm 1 mps 748 mmHg 49%
    04:00 +4°C° 0 mm 1 mps 748 mmHg 51%
    05:00 +4°C° 0 mm 1 mps 749 mmHg 52%
    06:00 +4°C° 0 mm 1 mps 749 mmHg 54%
    07:00 +5°C° 0 mm 2 mps 749 mmHg 49%
    08:00 +7°C° 0 mm 3 mps 749 mmHg 45%
    09:00 +10°C° 0 mm 4 mps 749 mmHg 40%
    10:00 +11°C° 0 mm 4 mps 749 mmHg 37%
    11:00 +12°C° 0 mm 5 mps 749 mmHg 34%
    12:00 +13°C° 0 mm 5 mps 749 mmHg 31%
    13:00 +13°C° 0 mm 5 mps 749 mmHg 31%
    14:00 +13°C° 0 mm 5 mps 749 mmHg 31%
    15:00 +14°C° 0 mm 5 mps 749 mmHg 31%
    16:00 +13°C° 0 mm 4 mps 749 mmHg 34%
    17:00 +13°C° 0 mm 4 mps 749 mmHg 37%
    18:00 +12°C° 0 mm 4 mps 749 mmHg 39%
    19:00 +11°C° 0 mm 3 mps 749 mmHg 43%
    20:00 +9°C° 0 mm 3 mps 749 mmHg 46%
    21:00 +8°C° 0 mm 2 mps 749 mmHg 49%
    22:00 +8°C° 0 mm 2 mps 749 mmHg 50%
    23:00 +8°C° 0 mm 1 mps 749 mmHg 50%

    Tomorrow, 22 April, Monday

    Time Temperature Precipitation Wind Pressure Humidity
    00:00 +7°C° 0 mm 1 mps 749 mmHg 51%
    01:00 +7°C° 0 mm 1 mps 749 mmHg 51%
    02:00 +7°C° 0 mm 1 mps 749 mmHg 51%
    03:00 +7°C° 0 mm 1 mps 749 mmHg 51%
    04:00 +6°C° 0 mm 1 mps 749 mmHg 52%
    05:00 +6°C° 0 mm 1 mps 749 mmHg 53%
    06:00 +6°C° 0 mm 1 mps 749 mmHg 54%
    07:00 +8°C° 0 mm 1 mps 750 mmHg 49%
    08:00 +9°C° 0 mm 2 mps 750 mmHg 44%
    09:00 +12°C° 0 mm 2 mps 750 mmHg 38%
    10:00 +12°C° 0 mm 3 mps 750 mmHg 36%
    11:00 +13°C° 0 mm 3 mps 750 mmHg 33%
    12:00 +14°C° 0 mm 4 mps 750 mmHg 30%
    13:00 +14°C° 0 mm 4 mps 750 mmHg 31%
    14:00 +14°C° 0 mm 3 mps 750 mmHg 32%
    15:00 +14°C° 0 mm 3 mps 749 mmHg 33%
    16:00 +14°C° 0 mm 3 mps 749 mmHg 35%
    17:00 +14°C° 0 mm 3 mps 749 mmHg 38%
    18:00 +13°C° 0 mm 3 mps 749 mmHg 40%
    19:00 +13°C° 0 mm 2 mps 750 mmHg 43%
    20:00 +12°C° 0 mm 2 mps 750 mmHg 47%
    21:00 +11°C° 0 mm 1 mps 750 mmHg 50%
    22:00 +10°C° 0 mm 1 mps 750 mmHg 50%
    23:00 +10°C° 0 mm 1 mps 751 mmHg 51%

    Day after tomorrow, 23 April, Tuesday

    Time Temperature Precipitation Wind Pressure Humidity
    00:00 +9°C° 0 mm 0 mps 751 mmHg 51%
    01:00 +9°C° 0 mm 0 mps 751 mmHg 52%
    02:00 +8°C° 0 mm 0 mps 751 mmHg 53%
    03:00 +8°C° 0 mm 0 mps 751 mmHg 54%
    04:00 +7°C° 0 mm 0 mps 751 mmHg 56%
    05:00 +7°C° 0 mm 0 mps 751 mmHg 57%
    06:00 +7°C° 0 mm 0 mps 752 mmHg 59%
    07:00 +10°C° 0 mm 1 mps 752 mmHg 53%
    08:00 +12°C° 0 mm 1 mps 752 mmHg 47%
    09:00 +14°C° 0 mm 1 mps 753 mmHg 41%
    10:00 +14°C° 0 mm 1 mps 753 mmHg 38%
    11:00 +15°C° 0 mm 2 mps 753 mmHg 36%
    12:00 +16°C° 0 mm 2 mps 753 mmHg 33%
    13:00 +16°C° 0 mm 2 mps 753 mmHg 34%
    14:00 +16°C° 0 mm 2 mps 753 mmHg 35%
    15:00 +16°C° 0 mm 2 mps 753 mmHg 36%
    16:00 +16°C° 0 mm 2 mps 753 mmHg 39%
    17:00 +14°C° 0 mm 3 mps 752 mmHg 42%
    18:00 +14°C° 0 mm 3 mps 752 mmHg 45%
    19:00 +14°C° 0 mm 2 mps 752 mmHg 47%
    20:00 +13°C° 0 mm 2 mps 753 mmHg 50%
    21:00 +12°C° 0 mm 1 mps 753 mmHg 52%
    22:00 +12°C° 0 mm 1 mps 753 mmHg 52%
    23:00 +11°C° 0 mm 1 mps 753 mmHg 53%

    24 April, Wednesday

    Time Temperature Precipitation Wind Pressure Humidity
    00:00 +11°C° 0 mm 1 mps 753 mmHg 54%
    01:00 +10°C° 0 mm 1 mps 753 mmHg 56%
    02:00 +9°C° 0 mm 2 mps 752 mmHg 58%
    03:00 +8°C° 0 mm 2 mps 752 mmHg 61%
    04:00 +8°C° 0 mm 2 mps 752 mmHg 63%
    05:00 +8°C° 0 mm 2 mps 752 mmHg 65%
    06:00 +7°C° 0 mm 3 mps 752 mmHg 67%
    07:00 +9°C° 0 mm 3 mps 752 mmHg 62%
    08:00 +11°C° 0 mm 4 mps 752 mmHg 57%
    09:00 +13°C° 0 mm 5 mps 753 mmHg 52%
    10:00 +15°C° 0 mm 5 mps 752 mmHg 49%
    11:00 +16°C° 0 mm 5 mps 752 mmHg 45%
    12:00 +19°C° 0 mm 5 mps 752 mmHg 42%
    13:00 +19°C° 0 mm 5 mps 752 mmHg 42%
    14:00 +20°C° 0 mm 5 mps 751 mmHg 42%
    15:00 +20°C° 0 mm 5 mps 751 mmHg 42%
    16:00 +20°C° 0 mm 5 mps 751 mmHg 45%
    17:00 +19°C° 0 mm 4 mps 751 mmHg 48%
    18:00 +19°C° 0 mm 3 mps 751 mmHg 51%
    19:00 +18°C° 0 mm 3 mps 751 mmHg 55%
    20:00 +16°C° 0 mm 2 mps 751 mmHg 59%
    21:00 +15°C° 0 mm 2 mps 751 mmHg 64%
    22:00 +14°C° 0 mm 2 mps 751 mmHg 66%
    23:00 +14°C° 0 mm 2 mps 752 mmHg 67%

    25 April, Thursday

    Time Temperature Precipitation Wind Pressure Humidity
    00:00 +13°C° 0 mm 2 mps 752 mmHg 69%
    01:00 +13°C° 0 mm 2 mps 752 mmHg 70%
    02:00 +12°C° 0 mm 2 mps 752 mmHg 72%
    03:00 +12°C° 0 mm 2 mps 752 mmHg 73%
    04:00 +12°C° 0 mm 2 mps 752 mmHg 74%
    05:00 +10°C° 0 mm 2 mps 752 mmHg 75%
    06:00 +10°C° 0 mm 2 mps 752 mmHg 76%
    07:00 +13°C° 0 mm 2 mps 752 mmHg 69%
    08:00 +14°C° 0 mm 3 mps 752 mmHg 62%
    09:00 +17°C° 0 mm 3 mps 753 mmHg 55%
    10:00 +19°C° 0 mm 3 mps 753 mmHg 50%
    11:00 +20°C° 0 mm 3 mps 752 mmHg 45%
    12:00 +21°C° 0 mm 3 mps 752 mmHg 40%
    13:00 +22°C° 0 mm 3 mps 752 mmHg 39%
    14:00 +24°C° 0 mm 3 mps 752 mmHg 37%
    15:00 +24°C° 0 mm 3 mps 752 mmHg 35%
    16:00 +24°C° 0 mm 3 mps 752 mmHg 38%
    17:00 +23°C° 0 mm 2 mps 751 mmHg 41%
    18:00 +23°C° 0 mm 2 mps 751 mmHg 44%
    19:00 +20°C° 0 mm 2 mps 751 mmHg 47%
    20:00 +19°C° 0 mm 1 mps 751 mmHg 50%
    21:00 +18°C° 0 mm 1 mps 751 mmHg 53%
    22:00 +16°C° 0 mm 1 mps 751 mmHg 55%
    23:00 +16°C° 0 mm 1 mps 751 mmHg 57%

    26 April, Friday

    Time Temperature Precipitation Wind Pressure Humidity
    00:00 +15°C° 0 mm 1 mps 751 mmHg 59%
    01:00 +15°C° 0 mm 1 mps 751 mmHg 61%
    02:00 +14°C° 0 mm 1 mps 751 mmHg 63%
    03:00 +14°C° 0 mm 1 mps 750 mmHg 65%
    04:00 +14°C° 0 mm 1 mps 750 mmHg 67%
    05:00 +14°C° 0 mm 1 mps 750 mmHg 68%
    06:00 +13°C° 0 mm 0 mps 750 mmHg 70%
    07:00 +16°C° 0 mm 1 mps 750 mmHg 64%
    08:00 +19°C° 0 mm 1 mps 751 mmHg 58%
    09:00 +21°C° 0 mm 1 mps 751 mmHg 52%
    10:00 +22°C° 0 mm 1 mps 751 mmHg 48%
    11:00 +23°C° 0 mm 1 mps 750 mmHg 44%
    12:00 +24°C° 0 mm 1 mps 750 mmHg 40%
    13:00 +24°C° 0 mm 1 mps 750 mmHg 40%
    14:00 +24°C° 0 mm 1 mps 750 mmHg 41%
    15:00 +23°C° 0 mm 2 mps 749 mmHg 42%
    16:00 +23°C° 0 mm 1 mps 749 mmHg 44%
    17:00 +23°C° 0 mm 1 mps 749 mmHg 46%
    18:00 +22°C° 0 mm 1 mps 748 mmHg 48%
    19:00 +21°C° 0 mm 1 mps 749 mmHg 50%
    20:00 +20°C° 0 mm 1 mps 749 mmHg 52%
    21:00 +19°C° 0 mm 1 mps 749 mmHg 54%
    22:00 +19°C° 0 mm 1 mps 748 mmHg 55%
    23:00 +19°C° 0 mm 1 mps 748 mmHg 55%
    Show more